TimeEDT,TemperatureF,Dew PointF,Humidity,Sea Level PressureIn,VisibilityMPH,Wind Direction,Wind SpeedMPH,Gust SpeedMPH,PrecipitationIn,Events,Conditions,WindDirDegrees,DateUTC
12:16 AM,41.9,37.9,86,30.08,10.0,Calm,Calm,-,N/A,,Clear,0,2013-05-17 04:16:00
12:36 AM,41.0,37.4,87,30.08,10.0,Calm,Calm,-,N/A,,Clear,0,2013-05-17 04:36:00
12:55 AM,38.8,36.7,92,30.08,10.0,Calm,Calm,-,N/A,,Clear,0,2013-05-17 04:55:00
1:16 AM,38.5,37.0,95,30.09,10.0,Calm,Calm,-,N/A,,Clear,0,2013-05-17 05:16:00
1:36 AM,37.8,36.3,95,30.08,10.0,Calm,Calm,-,N/A,,Clear,0,2013-05-17 05:36:00
1:55 AM,37.0,36.1,97,30.08,10.0,Calm,Calm,-,N/A,,Clear,0,2013-05-17 05:55:00
2:16 AM,37.8,36.7,96,30.08,10.0,Calm,Calm,-,N/A,,Clear,0,2013-05-17 06:16:00
2:35 AM,37.4,36.5,97,30.09,10.0,Calm,Calm,-,N/A,,Clear,0,2013-05-17 06:35:00
2:56 AM,37.4,36.5,97,30.10,10.0,Calm,Calm,-,N/A,,Clear,0,2013-05-17 06:56:00
3:16 AM,37.9,37.4,98,30.10,10.0,Calm,Calm,-,N/A,,Clear,0,2013-05-17 07:16:00
3:35 AM,41.4,37.4,86,30.11,10.0,SE,3.5,-,N/A,,Clear,140,2013-05-17 07:35:00
3:56 AM,43.7,37.9,80,30.12,10.0,SSE,4.6,-,N/A,,Clear,150,2013-05-17 07:56:00
4:16 AM,45.0,39.4,81,30.12,10.0,SSE,4.6,-,N/A,,Clear,160,2013-05-17 08:16:00
4:35 AM,44.4,39.4,82,30.12,10.0,SSE,4.6,-,N/A,,Clear,150,2013-05-17 08:35:00
4:56 AM,44.6,39.2,81,30.13,10.0,SSE,4.6,-,N/A,,Clear,150,2013-05-17 08:56:00
5:15 AM,43.9,38.5,81,30.13,10.0,Calm,Calm,-,N/A,,Clear,0,2013-05-17 09:15:00
5:35 AM,42.6,37.6,82,30.13,10.0,SSE,3.5,-,N/A,,Clear,150,2013-05-17 09:35:00
5:56 AM,42.1,37.6,84,30.14,10.0,Calm,Calm,-,N/A,,Clear,0,2013-05-17 09:56:00
6:15 AM,40.1,36.7,88,30.15,10.0,Calm,Calm,-,N/A,,Clear,0,2013-05-17 10:15:00
6:36 AM,39.2,37.2,93,30.15,10.0,Calm,Calm,-,N/A,,Clear,0,2013-05-17 10:36:00
6:56 AM,39.2,37.2,93,30.16,10.0,Calm,Calm,-,N/A,,Clear,0,2013-05-17 10:56:00
7:15 AM,40.3,37.8,91,30.17,10.0,Calm,Calm,-,N/A,,Clear,0,2013-05-17 11:15:00
7:36 AM,44.8,39.6,82,30.18,10.0,Calm,Calm,-,N/A,,Clear,0,2013-05-17 11:36:00
8:15 AM,49.5,40.1,70,30.19,10.0,Calm,Calm,-,N/A,,Clear,0,2013-05-17 12:15:00
8:36 AM,50.4,39.9,67,30.20,10.0,Calm,Calm,-,N/A,,Clear,0,2013-05-17 12:36:00
8:56 AM,52.3,40.5,64,30.21,10.0,South,3.5,-,N/A,,Clear,170,2013-05-17 12:56:00
9:15 AM,53.8,39.4,58,30.21,10.0,SE,5.8,-,N/A,,Clear,130,2013-05-17 13:15:00
9:36 AM,54.5,38.5,55,30.21,10.0,SSW,5.8,-,N/A,,Clear,210,2013-05-17 13:36:00
9:55 AM,55.2,38.5,53,30.21,10.0,South,5.8,-,N/A,,Clear,190,2013-05-17 13:55:00
10:15 AM,56.3,38.5,51,30.22,10.0,South,4.6,-,N/A,,Clear,180,2013-05-17 14:15:00
10:36 AM,57.4,37.6,48,30.22,10.0,SSE,4.6,-,N/A,,Clear,160,2013-05-17 14:36:00
10:55 AM,58.3,37.9,47,30.22,10.0,South,5.8,-,N/A,,Clear,180,2013-05-17 14:55:00
11:16 AM,59.4,37.0,43,30.23,10.0,ESE,5.8,-,N/A,,Clear,120,2013-05-17 15:16:00
11:36 AM,59.7,37.2,43,30.23,10.0,SE,6.9,-,N/A,,Clear,140,2013-05-17 15:36:00
11:55 AM,59.9,36.9,42,30.23,10.0,SE,6.9,-,N/A,,Clear,140,2013-05-17 15:55:00
12:16 PM,60.1,36.5,41,30.23,10.0,SSE,9.2,-,N/A,,Clear,160,2013-05-17 16:16:00
12:36 PM,59.9,36.3,41,30.23,10.0,South,5.8,-,N/A,,Clear,170,2013-05-17 16:36:00
12:55 PM,60.3,36.5,41,30.23,10.0,SE,8.1,-,N/A,,Clear,140,2013-05-17 16:55:00
1:16 PM,59.4,36.1,42,30.23,10.0,South,9.2,17.3,N/A,,Clear,170,2013-05-17 17:16:00
1:36 PM,60.6,36.7,41,30.23,10.0,SE,10.4,16.1,N/A,,Clear,130,2013-05-17 17:36:00
1:55 PM,60.1,37.0,42,30.23,10.0,SE,11.5,16.1,N/A,,Clear,140,2013-05-17 17:55:00
2:16 PM,59.7,36.3,42,30.22,10.0,SSE,9.2,17.3,N/A,,Clear,160,2013-05-17 18:16:00
2:35 PM,59.9,37.2,43,30.23,10.0,SE,8.1,17.3,N/A,,Clear,140,2013-05-17 18:35:00
3:16 PM,59.9,37.2,43,30.22,10.0,SE,9.2,-,N/A,,Clear,140,2013-05-17 19:16:00
3:35 PM,60.3,37.9,44,30.22,10.0,SSE,8.1,16.1,N/A,,Clear,150,2013-05-17 19:35:00
3:56 PM,60.4,37.2,42,30.22,10.0,ESE,11.5,17.3,N/A,,Clear,120,2013-05-17 19:56:00
4:16 PM,59.9,37.0,43,30.21,10.0,SE,10.4,-,N/A,,Clear,140,2013-05-17 20:16:00
4:35 PM,60.4,36.9,42,30.21,10.0,SE,9.2,-,N/A,,Clear,130,2013-05-17 20:35:00
4:56 PM,60.3,36.3,41,30.20,10.0,SE,11.5,17.3,N/A,,Clear,130,2013-05-17 20:56:00
5:16 PM,60.4,37.2,42,30.20,10.0,SSE,9.2,16.1,N/A,,Clear,150,2013-05-17 21:16:00
5:35 PM,59.4,36.3,42,30.21,10.0,SE,8.1,16.1,N/A,,Clear,140,2013-05-17 21:35:00
5:56 PM,58.6,36.1,43,30.21,10.0,SSE,9.2,-,N/A,,Clear,160,2013-05-17 21:56:00
6:15 PM,58.5,36.3,44,30.20,10.0,SE,8.1,-,N/A,,Clear,130,2013-05-17 22:15:00
6:36 PM,58.1,36.1,44,30.20,10.0,SSE,10.4,-,N/A,,Clear,150,2013-05-17 22:36:00
6:56 PM,57.7,36.0,44,30.19,10.0,SSE,6.9,-,N/A,,Clear,160,2013-05-17 22:56:00
7:15 PM,56.5,36.0,46,30.19,10.0,SE,9.2,-,N/A,,Clear,140,2013-05-17 23:15:00
7:36 PM,55.4,36.0,48,30.19,10.0,SSE,4.6,-,N/A,,Clear,150,2013-05-17 23:36:00
7:56 PM,55.4,36.9,50,30.19,10.0,SSE,5.8,-,N/A,,Clear,150,2013-05-17 23:56:00
8:15 PM,53.8,36.7,52,30.19,10.0,SSE,4.6,-,N/A,,Clear,150,2013-05-18 00:15:00
8:36 PM,53.1,36.7,54,30.18,10.0,SE,4.6,-,N/A,,Clear,130,2013-05-18 00:36:00
8:56 PM,51.8,36.5,56,30.19,10.0,SSE,4.6,-,N/A,,Clear,150,2013-05-18 00:56:00
9:15 PM,49.8,36.3,60,30.19,10.0,SE,4.6,-,N/A,,Clear,140,2013-05-18 01:15:00
9:36 PM,49.1,36.5,62,30.19,10.0,Calm,Calm,-,N/A,,Clear,0,2013-05-18 01:36:00
9:56 PM,48.6,36.5,63,30.19,10.0,Calm,Calm,-,N/A,,Clear,0,2013-05-18 01:56:00
10:15 PM,48.2,36.7,64,30.20,10.0,Calm,Calm,-,N/A,,Clear,0,2013-05-18 02:15:00
10:36 PM,46.6,36.9,69,30.20,10.0,Calm,Calm,-,N/A,,Clear,0,2013-05-18 02:36:00
10:55 PM,46.4,36.7,69,30.20,10.0,Calm,Calm,-,N/A,,Clear,0,2013-05-18 02:55:00
11:15 PM,43.5,36.7,77,30.21,10.0,Calm,Calm,-,N/A,,Clear,0,2013-05-18 03:15:00
11:36 PM,44.1,37.4,77,30.21,10.0,Calm,Calm,-,N/A,,Clear,0,2013-05-18 03:36:00
11:55 PM,43.0,36.5,78,30.21,10.0,Calm,Calm,-,N/A,,Clear,0,2013-05-18 03:55:00